Weather History for KPEQ - March, 2013

Change the Weather History Date:

Friday, March 29, 2013

  Actual Average Record
Temperature  
Mean Temperature 64 °F -  
Max Temperature 86 °F 77 °F 97 °F (1963)
Min Temperature 44 °F 43 °F 18 °F (1944)
Growing Degree Days 14 (Base 50)    
Moisture  
Dew Point 45 °F    
Average Humidity 58    
Maximum Humidity 93    
Minimum Humidity 15    
Precipitation  
Precipitation 0.00 in - - ()
Sea Level Pressure  
Sea Level Pressure 30.02 in    
Wind  
Wind Speed 7 mph (ENE)    
Max Wind Speed 14 mph    
Max Gust Speed -    
Visibility 10 miles    
Events      
Averages and records for this station are not official NWS values.
T = Trace of Precipitation, MM = Missing Value Source: NWS Daily Summary

Daily Weather History Graph

Daily Weather History Graph

Search for Another Location

Airport or City:

Trip Planner

Search our weather history database for the weather conditions in past years. The results will help you decide how hot, cold, wet, or windy it might be!

Date:

Astronomy

Mar. 29, 2013 Rise Set
Actual Time 7:46 AM CDT 8:11 PM CDT
Civil Twilight 7:21 AM CDT 8:36 PM CDT
Nautical Twilight 6:53 AM CDT 9:04 PM CDT
Astronomical Twilight 6:24 AM CDT 9:33 PM CDT
Moon 11:01 PM CDT (3/29) 9:07 AM CDT (3/29)
Length of Visible Light 13h 14m
Length of Day
12h 25m
Waning Gibbous, 93% of the Moon is Illuminated
Mar 29
Waning Gibbous
Apr 2
Last Quarter
Apr 10
New
Apr 18
First Quarter
Apr 25
Full

Hourly Weather History & Observations

Time (CDT) Temp. Windchill Dew Point Humidity Pressure Visibility Wind Dir Wind Speed Gust Speed Precip Events Conditions
12:15 AM 63.0 °F - 51.1 °F 65% 30.04 in 10.0 mi East 13.8 mph - N/A   Clear
12:35 AM 62.2 °F - 51.1 °F 67% 30.04 in 10.0 mi East 11.5 mph - N/A   Clear
12:55 AM 61.7 °F - 51.3 °F 69% 30.04 in 10.0 mi ESE 12.7 mph - N/A   Clear
1:15 AM 61.0 °F - 51.3 °F 70% 30.03 in 10.0 mi East 13.8 mph - N/A   Clear
1:35 AM 60.6 °F - 51.3 °F 71% 30.03 in 10.0 mi East 12.7 mph - N/A   Clear
1:55 AM 59.9 °F - 51.3 °F 73% 30.04 in 10.0 mi East 10.4 mph - N/A   Clear
2:15 AM 59.0 °F - 51.1 °F 75% 30.03 in 10.0 mi East 10.4 mph - N/A   Clear
2:35 AM 58.5 °F - 51.1 °F 76% 30.03 in 10.0 mi East 10.4 mph - N/A   Clear
2:55 AM 57.6 °F - 50.9 °F 78% 30.03 in 10.0 mi ESE 8.1 mph - N/A   Clear
3:15 AM 57.2 °F - 50.7 °F 79% 30.03 in 10.0 mi ESE 6.9 mph - N/A   Clear
3:35 AM 56.3 °F - 50.4 °F 80% 30.03 in 10.0 mi ESE 4.6 mph - N/A   Clear
3:55 AM 54.5 °F - 49.3 °F 83% 30.03 in 10.0 mi East 3.5 mph - N/A   Clear
4:15 AM 54.0 °F - 49.5 °F 85% 30.02 in 10.0 mi East 4.6 mph - N/A   Clear
4:35 AM 52.5 °F - 48.7 °F 87% 30.02 in 10.0 mi East 4.6 mph - N/A   Clear
4:55 AM 52.2 °F - 48.6 °F 88% 30.02 in 10.0 mi Calm Calm - N/A   Clear
5:15 AM 53.1 °F - 49.5 °F 88% 30.02 in 10.0 mi Calm Calm - N/A   Clear
5:35 AM 52.0 °F - 48.7 °F 89% 30.02 in 10.0 mi NNE 3.5 mph - N/A   Clear
5:55 AM 49.1 °F - 45.5 °F 87% 30.02 in 10.0 mi North 3.5 mph - N/A   Clear
6:15 AM 49.3 °F - 45.9 °F 88% 30.02 in 10.0 mi Calm Calm - N/A   Clear
6:35 AM 48.9 °F - 45.7 °F 89% 30.03 in 10.0 mi Calm Calm - N/A   Clear
6:55 AM 46.6 °F - 43.5 °F 89% 30.04 in 10.0 mi Calm Calm - N/A   Clear
7:15 AM 47.3 °F - 44.8 °F 91% 30.05 in 10.0 mi Calm Calm - N/A   Clear
7:35 AM 46.6 °F - 44.2 °F 92% 30.05 in 7.0 mi Calm Calm - N/A   Clear
7:55 AM 44.8 °F 41.6 °F 42.6 °F 92% 30.07 in 7.0 mi West 5.8 mph - N/A   Clear
8:15 AM 46.6 °F - 44.8 °F 93% 30.07 in 7.0 mi WNW 5.8 mph - N/A   Clear
8:35 AM 47.5 °F - 45.7 °F 93% 30.09 in 7.0 mi West 4.6 mph - N/A   Clear
8:55 AM 50.4 °F - 47.5 °F 90% 30.09 in 10.0 mi WNW 3.5 mph - N/A   Clear
9:15 AM 52.3 °F - 48.6 °F 87% 30.09 in 10.0 mi West 4.6 mph - N/A   Clear
9:35 AM 54.1 °F - 49.8 °F 85% 30.09 in 10.0 mi WNW 5.8 mph - N/A   Clear
9:55 AM 56.8 °F - 51.4 °F 82% 30.09 in 10.0 mi NW 6.9 mph - N/A   Clear
10:15 AM 59.4 °F - 52.0 °F 77% 30.09 in 10.0 mi NW 5.8 mph - N/A   Clear
10:35 AM 61.3 °F - 52.0 °F 71% 30.09 in 10.0 mi NNW 6.9 mph - N/A   Clear
10:55 AM 64.0 °F - 52.2 °F 65% 30.09 in 10.0 mi NNW 5.8 mph - N/A   Clear
11:15 AM 67.3 °F - 51.6 °F 57% 30.09 in 10.0 mi NNW 3.5 mph - N/A   Clear
11:55 AM 71.4 °F - 47.3 °F 42% 30.08 in 10.0 mi WNW 3.5 mph - N/A   Clear
12:15 PM 72.5 °F - 46.9 °F 40% 30.07 in 10.0 mi NW 3.5 mph - N/A   Clear
12:35 PM 73.0 °F - 46.9 °F 39% 30.07 in 10.0 mi NW 3.5 mph - N/A   Clear
12:55 PM 73.9 °F - 46.9 °F 38% 30.07 in 10.0 mi North 3.5 mph - N/A   Clear
1:15 PM 74.3 °F - 46.8 °F 37% 30.07 in 10.0 mi Calm Calm - N/A   Clear
1:55 PM 77.4 °F - 46.2 °F 33% 30.04 in 10.0 mi Calm Calm - N/A   Clear
2:15 PM 79.0 °F - 45.3 °F 30% 30.04 in 10.0 mi Calm Calm - N/A   Clear
2:55 PM 81.5 °F - 42.8 °F 25% 30.02 in 10.0 mi Calm Calm - N/A   Clear
3:15 PM 83.1 °F - 40.3 °F 22% 30.00 in 10.0 mi NNE 4.6 mph - N/A   Clear
3:35 PM 83.1 °F - 34.2 °F 17% 29.99 in 10.0 mi Calm Calm - N/A   Clear
3:55 PM 84.4 °F - 33.8 °F 16% 29.98 in 10.0 mi NNW 4.6 mph - N/A   Clear
4:15 PM 84.0 °F - 34.7 °F 17% 29.98 in 10.0 mi North 4.6 mph - N/A   Clear
5:35 PM 85.3 °F - 32.9 °F 15% 29.96 in 10.0 mi North 4.6 mph - N/A   Clear
5:55 PM 85.5 °F - 32.7 °F 15% 29.95 in 10.0 mi Calm Calm - N/A   Clear
6:15 PM 84.4 °F - 32.4 °F 15% 29.95 in 10.0 mi Calm Calm - N/A   Clear
6:35 PM 83.8 °F - 32.7 °F 16% 29.95 in 10.0 mi Calm Calm - N/A   Clear
6:55 PM 83.8 °F - 32.4 °F 16% 29.95 in 10.0 mi Calm Calm - N/A   Clear
7:15 PM 81.5 °F - 32.9 °F 17% 29.94 in 10.0 mi SE 4.6 mph - N/A   Clear
7:35 PM 78.8 °F - 32.9 °F 19% 29.94 in 10.0 mi SE 5.8 mph - N/A   Clear
8:15 PM 75.2 °F - 33.6 °F 22% 29.95 in 10.0 mi ESE 9.2 mph - N/A   Clear
8:35 PM 72.5 °F - 36.0 °F 26% 29.95 in 10.0 mi East 6.9 mph - N/A   Clear
9:15 PM 73.0 °F - 44.4 °F 36% 29.96 in 10.0 mi ESE 10.4 mph - N/A   Clear
9:35 PM 72.5 °F - 48.6 °F 43% 29.96 in 10.0 mi SE 12.7 mph - N/A   Clear
9:55 PM 70.9 °F - 48.7 °F 45% 29.97 in 10.0 mi SE 10.4 mph - N/A   Clear
10:15 PM 68.7 °F - 48.6 °F 49% 29.98 in 10.0 mi ESE 5.8 mph - N/A   Clear
10:35 PM 66.2 °F - 48.2 °F 52% 29.99 in 10.0 mi SE 5.8 mph - N/A   Clear
10:55 PM 64.8 °F - 48.0 °F 55% 29.99 in 10.0 mi SSE 5.8 mph - N/A   Clear
11:15 PM 67.1 °F - 48.7 °F 52% 30.01 in 10.0 mi ESE 3.5 mph - N/A   Clear
11:35 PM 64.2 °F - 48.9 °F 58% 30.02 in 10.0 mi ENE 6.9 mph - N/A   Clear
11:55 PM 62.6 °F - 49.1 °F 61% 30.02 in 10.0 mi ENE 9.2 mph - N/A   Clear